Regional Weather Roundup
Issued by NWS

Home | Current Version | Previous Version | Text Only | Print | Product List | Glossary On
Versions: 1 2 3 4 5 6 7 8 9 10 11 12 13 14 15 16 17 18 19 20 21 22 23 24 25 26 27 28 29 30 31 32 33 34 35 36 37 38 39 40 41 42 43 44 45 46 47 48 49 50
000
ASUS43 KTOP 250108
RWRKS

WEATHER ROUNDUP FOR KANSAS
NATIONAL WEATHER SERVICE GOODLAND KS
700 PM CST TUE JAN 24 2017

NOTE:  "FAIR" INDICATES FEW OR NO CLOUDS BELOW 12,000 FEET WITH NO
SIGNIFICANT WEATHER AND/OR OBSTRUCTIONS TO VISIBILITY.

KSZ001>006-013>018-027>032-041>047-250200-
NORTHWEST KANSAS

CITY           SKY/WX    TMP DP  RH WIND       PRES   REMARKS
GOODLAND       CLOUDY    25  19  78 NW25G33   29.67R WCI   9
HAYS           MOCLDY    34  29  82 W10       29.61R WCI  26
HILL CITY      CLOUDY    35  29  78 NW20G25   29.62R WCI  24
RUSSELL        CLOUDY    35  29  78 NW16      29.57R WCI  25
$$

KSZ061>065-074>080-084>089-250200-
SOUTHWEST KANSAS

CITY           SKY/WX    TMP DP  RH WIND       PRES   REMARKS
DODGE CITY     CLOUDY    36  29  75 NW17G26   29.64R WCI  26
ELKHART          N/A     34  24  67 NW13        N/A  WCI  25
GARDEN CITY    CLOUDY    33  24  69 NW23G32   29.67R WCI  21
GREAT BEND     LGT RAIN  36  30  79 NW18G26   29.59R WCI  26
LIBERAL          N/A     36  27  69 N14       29.67R WCI  27
PRATT          CLOUDY    35  30  80 NW18G26   29.59R WCI  25
$$

KSZ066>073-081>083-090>101-250200-
SOUTHEAST KANSAS

CITY           SKY/WX    TMP DP  RH WIND       PRES   REMARKS
CHANUTE        PTCLDY    58  40  51 S13       29.45R
COFFEYVILLE    CLEAR     61  40  45 S14       29.48R
HUTCHINSON     MOCLDY    39  32  76 NW16      29.56R WCI  30
MEDICINE LODGE   N/A     39  31  72 NW20G26   29.59R WCI  29
NEWTON         PTCLDY    38  34  85 W17       29.53R WCI  28
PARSONS        CLEAR     60  39  45 S10       29.48R
WICHITA INTL   PTCLDY    40  33  76 NW17      29.56R WCI  31
WICHITA JABRA  CLEAR     39  34  82 NW15      29.54R WCI  31
WICHITA MCCONL CLEAR     41  33  75 NW15      29.54R
WINFIELD       CLEAR     45  37  73 NW15      29.56R
$$

KSZ007>012-019>026-033>040-048>060-102>105-250200-
NORTHEAST KANSAS

CITY           SKY/WX    TMP DP  RH WIND       PRES   REMARKS
CONCORDIA      CLOUDY    36  34  92 NW9       29.54R
EMPORIA        PTCLDY    48  38  68 W14G22    29.47R
LAWRENCE       CLOUDY    49  39  68 VRB7      29.43R
MANHATTAN      CLOUDY    48  38  68 N6        29.45R
MARYSVILLE     CLOUDY    36  34  93 N7        29.50R
OLATHE IND     PTCLDY    51  40  65 S6        29.43R
OLATHE EXE     PTCLDY    51  40  65 VRB6      29.43R
SALINA         CLOUDY    41  34  76 W15       29.52R
TOPEKA BILLARD MOCLDY    47  38  71 NE3       29.44R
TOPEKA FORBES  CLOUDY    50  41  71 N5        29.43R
$$



USA.gov is the U.S. government's official web portal to all federal, state and local government web resources and services.